When you browse on this site, cookies collect data to enhance your experience and personalize the content and advertising you see.
Visit our Privacy Policy to learn more. By continuing to use the site, you agree to this use of cookies and data.
  • în România
  • Lista ţărilor
  • Pe 7 zile
  • Temperatura apei
  • Hartă satelitară
  • Meteo pe hartă
  • Widget-uri
  • user-avatar
    Intrare

    Meteo pe oră la Shaki

    Astăzi, 20 Iunie, Joi

    Timp Temperatura Precipitaţii Vânt Presiune Umiditate
    00:00 +26°C° 0 mm 2 m/s 732 mmHg 50%
    01:00 +26°C° 0 mm 2 m/s 732 mmHg 50%
    02:00 +25°C° 0 mm 2 m/s 732 mmHg 51%
    03:00 +24°C° 0 mm 1 m/s 732 mmHg 52%
    04:00 +25°C° 0 mm 1 m/s 732 mmHg 51%
    05:00 +26°C° 0 mm 1 m/s 732 mmHg 49%
    06:00 +27°C° 0 mm 1 m/s 732 mmHg 48%
    07:00 +29°C° 0 mm 1 m/s 732 mmHg 43%
    08:00 +30°C° 0 mm 2 m/s 732 mmHg 38%
    09:00 +33°C° 0 mm 3 m/s 732 mmHg 33%
    10:00 +33°C° 0 mm 3 m/s 732 mmHg 31%
    11:00 +34°C° 0 mm 3 m/s 731 mmHg 30%
    12:00 +35°C° 0 mm 3 m/s 731 mmHg 28%
    13:00 +36°C° 0 mm 3 m/s 731 mmHg 28%
    14:00 +36°C° 0 mm 4 m/s 731 mmHg 27%
    15:00 +37°C° 0 mm 4 m/s 730 mmHg 27%
    16:00 +36°C° 0 mm 4 m/s 730 mmHg 29%
    17:00 +35°C° 0 mm 3 m/s 730 mmHg 31%
    18:00 +35°C° 0 mm 3 m/s 730 mmHg 33%
    19:00 +33°C° 0 mm 3 m/s 731 mmHg 34%
    20:00 +30°C° 0 mm 3 m/s 731 mmHg 35%
    21:00 +29°C° 0 mm 4 m/s 731 mmHg 36%
    22:00 +28°C° 0 mm 3 m/s 731 mmHg 37%
    23:00 +28°C° 0 mm 3 m/s 731 mmHg 39%

    Mâine, 21 Iunie, Vineri

    Timp Temperatura Precipitaţii Vânt Presiune Umiditate
    00:00 +27°C° 0 mm 2 m/s 731 mmHg 41%
    01:00 +26°C° 0 mm 2 m/s 731 mmHg 43%
    02:00 +25°C° 0 mm 2 m/s 731 mmHg 45%
    03:00 +25°C° 0 mm 2 m/s 731 mmHg 47%
    04:00 +26°C° 0 mm 1 m/s 731 mmHg 46%
    05:00 +27°C° 0 mm 1 m/s 731 mmHg 45%
    06:00 +28°C° 0 mm 1 m/s 731 mmHg 44%
    07:00 +29°C° 0.1 mm 2 m/s 731 mmHg 40%
    08:00 +30°C° 0.1 mm 2 m/s 732 mmHg 37%
    09:00 +31°C° 0.1 mm 3 m/s 732 mmHg 33%
    10:00 +33°C° 0.1 mm 3 m/s 732 mmHg 32%
    11:00 +34°C° 0.1 mm 3 m/s 732 mmHg 31%
    12:00 +35°C° 0.1 mm 3 m/s 732 mmHg 30%
    13:00 +35°C° 0.2 mm 4 m/s 732 mmHg 31%
    14:00 +35°C° 0.2 mm 4 m/s 732 mmHg 33%
    15:00 +35°C° 0.2 mm 5 m/s 732 mmHg 34%
    16:00 +34°C° 0 mm 4 m/s 732 mmHg 36%
    17:00 +34°C° 0 mm 4 m/s 732 mmHg 38%
    18:00 +33°C° 0 mm 3 m/s 732 mmHg 39%
    19:00 +30°C° 0 mm 3 m/s 732 mmHg 42%
    20:00 +29°C° 0 mm 3 m/s 732 mmHg 45%
    21:00 +27°C° 0 mm 3 m/s 733 mmHg 47%
    22:00 +27°C° 0 mm 2 m/s 733 mmHg 47%
    23:00 +26°C° 0 mm 2 m/s 733 mmHg 46%

    Poimâine, 22 Iunie, Sâmbătă

    Timp Temperatura Precipitaţii Vânt Presiune Umiditate
    00:00 +26°C° 0 mm 2 m/s 733 mmHg 45%
    01:00 +26°C° 0 mm 2 m/s 733 mmHg 46%
    02:00 +25°C° 0 mm 2 m/s 733 mmHg 47%
    03:00 +25°C° 0 mm 2 m/s 733 mmHg 48%
    04:00 +26°C° 0 mm 1 m/s 733 mmHg 48%
    05:00 +27°C° 0 mm 1 m/s 733 mmHg 48%
    06:00 +28°C° 0 mm 1 m/s 733 mmHg 47%
    07:00 +29°C° 0 mm 1 m/s 734 mmHg 43%
    08:00 +31°C° 0 mm 2 m/s 734 mmHg 40%
    09:00 +32°C° 0 mm 2 m/s 734 mmHg 36%
    10:00 +34°C° 0 mm 3 m/s 734 mmHg 34%
    11:00 +35°C° 0 mm 3 m/s 734 mmHg 32%
    12:00 +36°C° 0 mm 4 m/s 734 mmHg 30%
    13:00 +37°C° 0.1 mm 4 m/s 733 mmHg 30%
    14:00 +37°C° 0.1 mm 5 m/s 733 mmHg 30%
    15:00 +37°C° 0.1 mm 5 m/s 733 mmHg 29%
    16:00 +37°C° 0.1 mm 4 m/s 733 mmHg 31%
    17:00 +36°C° 0.1 mm 4 m/s 733 mmHg 33%
    18:00 +36°C° 0.1 mm 4 m/s 733 mmHg 35%
    19:00 +34°C° 0 mm 3 m/s 733 mmHg 38%
    20:00 +31°C° 0 mm 3 m/s 734 mmHg 40%
    21:00 +29°C° 0 mm 2 m/s 734 mmHg 43%
    22:00 +28°C° 0 mm 2 m/s 734 mmHg 43%
    23:00 +28°C° 0 mm 2 m/s 734 mmHg 43%

    23 Iunie, Duminică

    Timp Temperatura Precipitaţii Vânt Presiune Umiditate
    00:00 +27°C° 0 mm 2 m/s 734 mmHg 43%
    01:00 +27°C° 0 mm 2 m/s 734 mmHg 44%
    02:00 +26°C° 0 mm 2 m/s 734 mmHg 45%
    03:00 +26°C° 0 mm 1 m/s 734 mmHg 47%
    04:00 +27°C° 0 mm 1 m/s 734 mmHg 46%
    05:00 +28°C° 0 mm 1 m/s 734 mmHg 46%
    06:00 +28°C° 0 mm 1 m/s 734 mmHg 45%
    07:00 +30°C° 0 mm 1 m/s 734 mmHg 41%
    08:00 +32°C° 0 mm 1 m/s 734 mmHg 37%
    09:00 +34°C° 0 mm 2 m/s 734 mmHg 32%
    10:00 +36°C° 0 mm 2 m/s 734 mmHg 30%
    11:00 +37°C° 0 mm 3 m/s 734 mmHg 27%
    12:00 +38°C° 0 mm 3 m/s 734 mmHg 25%
    13:00 +39°C° 0 mm 3 m/s 734 mmHg 24%
    14:00 +40°C° 0 mm 4 m/s 734 mmHg 23%
    15:00 +41°C° 0 mm 4 m/s 733 mmHg 23%
    16:00 +40°C° 0 mm 4 m/s 733 mmHg 25%
    17:00 +38°C° 0 mm 4 m/s 733 mmHg 27%
    18:00 +38°C° 0 mm 4 m/s 733 mmHg 30%
    19:00 +36°C° 0 mm 3 m/s 733 mmHg 33%
    20:00 +32°C° 0 mm 2 m/s 733 mmHg 37%
    21:00 +30°C° 0 mm 2 m/s 734 mmHg 40%
    22:00 +30°C° 0 mm 2 m/s 734 mmHg 41%
    23:00 +29°C° 0 mm 2 m/s 734 mmHg 42%

    24 Iunie, Luni

    Timp Temperatura Precipitaţii Vânt Presiune Umiditate
    00:00 +29°C° 0 mm 2 m/s 734 mmHg 43%
    01:00 +29°C° 0 mm 2 m/s 734 mmHg 43%
    02:00 +28°C° 0 mm 2 m/s 734 mmHg 43%
    03:00 +28°C° 0 mm 1 m/s 734 mmHg 43%
    04:00 +29°C° 0 mm 1 m/s 734 mmHg 42%
    05:00 +29°C° 0 mm 1 m/s 734 mmHg 41%
    06:00 +30°C° 0 mm 1 m/s 734 mmHg 40%
    07:00 +32°C° 0 mm 1 m/s 734 mmHg 36%
    08:00 +34°C° 0 mm 2 m/s 734 mmHg 32%
    09:00 +36°C° 0 mm 3 m/s 734 mmHg 29%
    10:00 +37°C° 0 mm 4 m/s 734 mmHg 27%
    11:00 +40°C° 0 mm 5 m/s 733 mmHg 25%
    12:00 +41°C° 0 mm 6 m/s 733 mmHg 24%
    13:00 +41°C° 0.1 mm 6 m/s 733 mmHg 23%
    14:00 +43°C° 0.1 mm 7 m/s 733 mmHg 22%
    15:00 +43°C° 0.1 mm 8 m/s 733 mmHg 21%
    16:00 +41°C° 0 mm 7 m/s 732 mmHg 21%
    17:00 +40°C° 0 mm 7 m/s 732 mmHg 22%
    18:00 +40°C° 0 mm 6 m/s 732 mmHg 23%
    19:00 +36°C° 0 mm 5 m/s 733 mmHg 25%
    20:00 +34°C° 0 mm 4 m/s 733 mmHg 26%
    21:00 +30°C° 0 mm 3 m/s 733 mmHg 27%
    22:00 +30°C° 0 mm 3 m/s 733 mmHg 27%
    23:00 +29°C° 0 mm 2 m/s 733 mmHg 28%

    25 Iunie, Marţi

    Timp Temperatura Precipitaţii Vânt Presiune Umiditate
    00:00 +29°C° 0 mm 2 m/s 734 mmHg 28%
    01:00 +28°C° 0 mm 1 m/s 734 mmHg 28%
    02:00 +28°C° 0 mm 1 m/s 734 mmHg 29%
    03:00 +28°C° 0 mm 1 m/s 734 mmHg 29%
    04:00 +28°C° 0 mm 1 m/s 734 mmHg 30%
    05:00 +29°C° 0 mm 1 m/s 734 mmHg 31%
    06:00 +30°C° 0 mm 1 m/s 734 mmHg 32%
    07:00 +31°C° 0 mm 1 m/s 734 mmHg 29%
    08:00 +33°C° 0 mm 1 m/s 734 mmHg 26%
    09:00 +36°C° 0 mm 2 m/s 734 mmHg 22%
    10:00 +37°C° 0 mm 2 m/s 734 mmHg 20%
    11:00 +39°C° 0 mm 3 m/s 734 mmHg 19%
    12:00 +40°C° 0 mm 3 m/s 734 mmHg 17%
    13:00 +41°C° 0 mm 4 m/s 734 mmHg 16%
    14:00 +42°C° 0 mm 4 m/s 734 mmHg 16%
    15:00 +42°C° 0 mm 4 m/s 733 mmHg 15%
    16:00 +41°C° 0 mm 4 m/s 733 mmHg 17%
    17:00 +40°C° 0 mm 4 m/s 733 mmHg 20%
    18:00 +38°C° 0 mm 3 m/s 733 mmHg 22%
    19:00 +36°C° 0 mm 3 m/s 734 mmHg 24%
    20:00 +34°C° 0 mm 3 m/s 734 mmHg 26%
    21:00 +31°C° 0 mm 3 m/s 734 mmHg 29%
    22:00 +30°C° 0 mm 3 m/s 734 mmHg 30%
    23:00 +29°C° 0 mm 3 m/s 734 mmHg 30%
    Arată mai mult